Time,TemperatureF,DewpointF,PressureIn,WindDirection,WindDirectionDegrees,WindSpeedMPH,WindSpeedGustMPH,Humidity,HourlyPrecipIn,Conditions,Clouds,dailyrainin,SoftwareType,DateUTC
2013-06-15 00:00:00,60.0,56.4,29.76,WNW,292,1.0,4.0,88,0.00,,,0.00,WeatherCatV1.14B232,2013-06-15 04:00:00,
2013-06-15 00:05:00,60.0,56.4,29.76,WNW,292,1.0,4.0,88,0.00,,,0.00,WeatherCatV1.14B232,2013-06-15 04:05:00,
2013-06-15 00:10:00,59.4,56.2,29.77,WNW,292,0.0,5.0,89,0.00,,,0.00,WeatherCatV1.14B232,2013-06-15 04:10:00,
2013-06-15 00:15:00,59.4,56.2,29.77,WNW,292,0.0,5.0,89,0.00,,,0.00,WeatherCatV1.14B232,2013-06-15 04:15:00,
2013-06-15 00:20:00,59.4,56.2,29.77,WNW,292,0.0,5.0,89,0.00,,,0.00,WeatherCatV1.14B232,2013-06-15 04:20:00,
2013-06-15 00:25:00,59.4,56.2,29.77,WNW,292,0.0,5.0,89,0.00,,,0.00,WeatherCatV1.14B232,2013-06-15 04:25:00,
2013-06-15 00:30:00,59.4,56.2,29.77,WNW,292,0.0,5.0,89,0.00,,,0.00,WeatherCatV1.14B232,2013-06-15 04:30:00,
2013-06-15 00:35:00,59.4,56.2,29.77,WNW,292,0.0,5.0,89,0.00,,,0.00,WeatherCatV1.14B232,2013-06-15 04:35:00,
2013-06-15 00:40:00,58.1,55.5,29.78,WNW,292,0.0,4.0,91,0.00,,,0.00,WeatherCatV1.14B232,2013-06-15 04:40:00,
2013-06-15 00:45:00,58.1,55.5,29.78,WNW,292,0.0,4.0,91,0.00,,,0.00,WeatherCatV1.14B232,2013-06-15 04:45:00,
2013-06-15 00:50:00,58.1,55.5,29.78,WNW,292,0.0,4.0,91,0.00,,,0.00,WeatherCatV1.14B232,2013-06-15 04:50:00,
2013-06-15 00:55:00,58.1,55.5,29.78,WNW,292,0.0,4.0,91,0.00,,,0.00,WeatherCatV1.14B232,2013-06-15 04:55:00,
2013-06-15 01:00:00,58.1,55.5,29.78,WNW,292,0.0,4.0,91,0.00,,,0.00,WeatherCatV1.14B232,2013-06-15 05:00:00,
2013-06-15 01:05:00,58.1,55.5,29.78,WNW,292,0.0,4.0,91,0.00,,,0.00,WeatherCatV1.14B232,2013-06-15 05:05:00,
2013-06-15 01:10:00,58.3,55.7,29.78,East,90,0.0,4.0,91,0.00,,,0.00,WeatherCatV1.14B232,2013-06-15 05:10:00,
2013-06-15 01:15:00,58.3,55.7,29.78,East,90,0.0,4.0,91,0.00,,,0.00,WeatherCatV1.14B232,2013-06-15 05:15:00,
2013-06-15 01:20:00,58.3,55.7,29.78,East,90,0.0,4.0,91,0.00,,,0.00,WeatherCatV1.14B232,2013-06-15 05:20:00,
2013-06-15 01:25:00,58.3,55.7,29.78,East,90,0.0,4.0,91,0.00,,,0.00,WeatherCatV1.14B232,2013-06-15 05:25:00,
2013-06-15 01:30:00,58.3,55.7,29.78,East,90,0.0,4.0,91,0.00,,,0.00,WeatherCatV1.14B232,2013-06-15 05:30:00,
2013-06-15 01:35:00,58.3,55.7,29.78,East,90,0.0,4.0,91,0.00,,,0.00,WeatherCatV1.14B232,2013-06-15 05:35:00,
2013-06-15 01:40:00,58.4,55.8,29.79,East,90,0.0,6.0,91,0.00,,,0.00,WeatherCatV1.14B232,2013-06-15 05:40:00,
2013-06-15 01:45:00,58.4,55.8,29.79,East,90,0.0,6.0,91,0.00,,,0.00,WeatherCatV1.14B232,2013-06-15 05:45:00,
2013-06-15 01:50:00,58.4,55.8,29.79,East,90,0.0,6.0,91,0.00,,,0.00,WeatherCatV1.14B232,2013-06-15 05:50:00,
2013-06-15 01:55:00,58.4,55.8,29.79,East,90,0.0,6.0,91,0.00,,,0.00,WeatherCatV1.14B232,2013-06-15 05:55:00,
2013-06-15 02:00:00,58.4,55.8,29.79,East,90,0.0,6.0,91,0.00,,,0.00,WeatherCatV1.14B232,2013-06-15 06:00:00,
2013-06-15 02:05:00,58.4,55.8,29.79,East,90,0.0,6.0,91,0.00,,,0.00,WeatherCatV1.14B232,2013-06-15 06:05:00,
2013-06-15 02:10:00,58.0,55.4,29.79,ENE,68,0.0,3.0,91,0.00,,,0.00,WeatherCatV1.14B232,2013-06-15 06:10:00,
2013-06-15 02:15:00,58.0,55.4,29.79,ENE,68,0.0,3.0,91,0.00,,,0.00,WeatherCatV1.14B232,2013-06-15 06:15:00,
2013-06-15 02:20:00,58.0,55.4,29.79,ENE,68,0.0,3.0,91,0.00,,,0.00,WeatherCatV1.14B232,2013-06-15 06:20:00,
2013-06-15 02:25:00,58.0,55.4,29.79,ENE,68,0.0,3.0,91,0.00,,,0.00,WeatherCatV1.14B232,2013-06-15 06:25:00,
2013-06-15 02:30:00,58.0,55.4,29.79,ENE,68,0.0,3.0,91,0.00,,,0.00,WeatherCatV1.14B232,2013-06-15 06:30:00,
2013-06-15 02:35:00,58.0,55.4,29.79,ENE,68,0.0,3.0,91,0.00,,,0.00,WeatherCatV1.14B232,2013-06-15 06:35:00,
2013-06-15 02:40:00,57.0,54.7,29.79,ENE,68,0.0,2.0,92,0.00,,,0.00,WeatherCatV1.14B232,2013-06-15 06:40:00,
2013-06-15 02:45:00,57.0,54.7,29.79,ENE,68,0.0,2.0,92,0.00,,,0.00,WeatherCatV1.14B232,2013-06-15 06:45:00,
2013-06-15 02:50:00,57.0,54.7,29.79,ENE,68,0.0,2.0,92,0.00,,,0.00,WeatherCatV1.14B232,2013-06-15 06:50:00,
2013-06-15 02:55:00,57.0,54.7,29.79,ENE,68,0.0,2.0,92,0.00,,,0.00,WeatherCatV1.14B232,2013-06-15 06:55:00,
2013-06-15 03:00:00,57.0,54.7,29.79,ENE,68,0.0,2.0,92,0.00,,,0.00,WeatherCatV1.14B232,2013-06-15 07:00:00,
2013-06-15 03:05:00,57.0,54.7,29.79,ENE,68,0.0,2.0,92,0.00,,,0.00,WeatherCatV1.14B232,2013-06-15 07:05:00,
2013-06-15 03:10:00,56.2,53.9,29.80,ENE,68,0.0,1.0,92,0.00,,,0.00,WeatherCatV1.14B232,2013-06-15 07:10:00,
2013-06-15 03:15:00,56.2,53.9,29.80,ENE,68,0.0,1.0,92,0.00,,,0.00,WeatherCatV1.14B232,2013-06-15 07:15:00,
2013-06-15 03:20:00,56.2,53.9,29.80,ENE,68,0.0,1.0,92,0.00,,,0.00,WeatherCatV1.14B232,2013-06-15 07:20:00,
2013-06-15 03:25:00,56.2,53.9,29.80,ENE,68,0.0,1.0,92,0.00,,,0.00,WeatherCatV1.14B232,2013-06-15 07:25:00,
2013-06-15 03:30:00,56.2,53.9,29.80,ENE,68,0.0,1.0,92,0.00,,,0.00,WeatherCatV1.14B232,2013-06-15 07:30:00,
2013-06-15 03:35:00,56.2,53.9,29.80,ENE,68,0.0,1.0,92,0.00,,,0.00,WeatherCatV1.14B232,2013-06-15 07:35:00,
2013-06-15 03:40:00,56.5,54.5,29.81,ENE,68,0.0,2.0,93,0.00,,,0.00,WeatherCatV1.14B232,2013-06-15 07:40:00,
2013-06-15 03:45:00,56.5,54.5,29.81,ENE,68,0.0,2.0,93,0.00,,,0.00,WeatherCatV1.14B232,2013-06-15 07:45:00,
2013-06-15 03:50:00,56.5,54.5,29.81,ENE,68,0.0,2.0,93,0.00,,,0.00,WeatherCatV1.14B232,2013-06-15 07:50:00,
2013-06-15 03:55:00,56.5,54.5,29.81,ENE,68,0.0,2.0,93,0.00,,,0.00,WeatherCatV1.14B232,2013-06-15 07:55:00,
2013-06-15 04:00:00,56.5,54.5,29.81,ENE,68,0.0,2.0,93,0.00,,,0.00,WeatherCatV1.14B232,2013-06-15 08:00:00,
2013-06-15 04:05:00,56.5,54.5,29.81,ENE,68,0.0,2.0,93,0.00,,,0.00,WeatherCatV1.14B232,2013-06-15 08:05:00,
2013-06-15 04:10:00,56.3,54.3,29.82,ENE,68,0.0,4.0,93,0.00,,,0.00,WeatherCatV1.14B232,2013-06-15 08:10:00,
2013-06-15 04:15:00,56.3,54.3,29.82,ENE,68,0.0,4.0,93,0.00,,,0.00,WeatherCatV1.14B232,2013-06-15 08:15:00,
2013-06-15 04:20:00,56.3,54.3,29.82,ENE,68,0.0,4.0,93,0.00,,,0.00,WeatherCatV1.14B232,2013-06-15 08:20:00,
2013-06-15 04:25:00,56.3,54.3,29.82,ENE,68,0.0,4.0,93,0.00,,,0.00,WeatherCatV1.14B232,2013-06-15 08:25:00,
2013-06-15 04:30:00,56.3,54.3,29.82,ENE,68,0.0,4.0,93,0.00,,,0.00,WeatherCatV1.14B232,2013-06-15 08:30:00,
2013-06-15 04:35:00,56.3,54.3,29.82,ENE,68,0.0,4.0,93,0.00,,,0.00,WeatherCatV1.14B232,2013-06-15 08:35:00,
2013-06-15 04:40:00,56.6,54.6,29.83,ENE,68,0.0,4.0,93,0.00,,,0.00,WeatherCatV1.14B232,2013-06-15 08:40:00,
2013-06-15 04:45:00,56.6,54.6,29.83,ENE,68,0.0,4.0,93,0.00,,,0.00,WeatherCatV1.14B232,2013-06-15 08:45:00,
2013-06-15 04:50:00,56.6,54.6,29.83,ENE,68,0.0,4.0,93,0.00,,,0.00,WeatherCatV1.14B232,2013-06-15 08:50:00,
2013-06-15 04:55:00,56.6,54.6,29.83,ENE,68,0.0,4.0,93,0.00,,,0.00,WeatherCatV1.14B232,2013-06-15 08:55:00,
2013-06-15 05:00:00,56.6,54.6,29.83,ENE,68,0.0,4.0,93,0.00,,,0.00,WeatherCatV1.14B232,2013-06-15 09:00:00,
2013-06-15 05:05:00,56.6,54.6,29.83,ENE,68,0.0,4.0,93,0.00,,,0.00,WeatherCatV1.14B232,2013-06-15 09:05:00,
2013-06-15 05:10:00,56.9,54.3,29.84,ENE,68,0.0,6.0,91,0.00,,,0.00,WeatherCatV1.14B232,2013-06-15 09:10:00,
2013-06-15 05:15:00,56.9,54.3,29.84,ENE,68,0.0,6.0,91,0.00,,,0.00,WeatherCatV1.14B232,2013-06-15 09:15:00,
2013-06-15 05:20:00,56.9,54.3,29.84,ENE,68,0.0,6.0,91,0.00,,,0.00,WeatherCatV1.14B232,2013-06-15 09:20:00,
2013-06-15 05:25:00,56.9,54.3,29.84,ENE,68,0.0,6.0,91,0.00,,,0.00,WeatherCatV1.14B232,2013-06-15 09:25:00,
2013-06-15 05:30:00,56.9,54.3,29.84,ENE,68,0.0,6.0,91,0.00,,,0.00,WeatherCatV1.14B232,2013-06-15 09:30:00,
2013-06-15 05:35:00,56.9,54.3,29.84,ENE,68,0.0,6.0,91,0.00,,,0.00,WeatherCatV1.14B232,2013-06-15 09:35:00,
2013-06-15 05:40:00,56.3,54.0,29.85,ENE,68,0.0,3.0,92,0.00,,,0.00,WeatherCatV1.14B232,2013-06-15 09:40:00,
2013-06-15 05:45:00,56.3,54.0,29.85,ENE,68,0.0,3.0,92,0.00,,,0.00,WeatherCatV1.14B232,2013-06-15 09:45:00,
2013-06-15 05:50:00,56.3,54.0,29.85,ENE,68,0.0,3.0,92,0.00,,,0.00,WeatherCatV1.14B232,2013-06-15 09:50:00,
2013-06-15 05:55:00,56.3,54.0,29.85,ENE,68,0.0,3.0,92,0.00,,,0.00,WeatherCatV1.14B232,2013-06-15 09:55:00,
2013-06-15 06:00:00,56.3,54.0,29.85,ENE,68,0.0,3.0,92,0.00,,,0.00,WeatherCatV1.14B232,2013-06-15 10:00:00,
2013-06-15 06:05:00,56.3,54.0,29.85,ENE,68,0.0,3.0,92,0.00,,,0.00,WeatherCatV1.14B232,2013-06-15 10:05:00,
2013-06-15 06:10:00,57.0,54.4,29.86,NE,45,0.0,4.0,91,0.00,,,0.00,WeatherCatV1.14B232,2013-06-15 10:10:00,
2013-06-15 06:15:00,57.0,54.4,29.86,NE,45,0.0,4.0,91,0.00,,,0.00,WeatherCatV1.14B232,2013-06-15 10:15:00,
2013-06-15 06:20:00,57.0,54.4,29.86,NE,45,0.0,4.0,91,0.00,,,0.00,WeatherCatV1.14B232,2013-06-15 10:20:00,
2013-06-15 06:25:00,57.0,54.4,29.86,NE,45,0.0,4.0,91,0.00,,,0.00,WeatherCatV1.14B232,2013-06-15 10:25:00,
2013-06-15 06:30:00,57.0,54.4,29.86,NE,45,0.0,4.0,91,0.00,,,0.00,WeatherCatV1.14B232,2013-06-15 10:30:00,
2013-06-15 06:35:00,57.0,54.4,29.86,NE,45,0.0,4.0,91,0.00,,,0.00,WeatherCatV1.14B232,2013-06-15 10:35:00,
2013-06-15 06:40:00,59.6,55.7,29.87,NE,45,1.0,7.0,87,0.00,,,0.00,WeatherCatV1.14B232,2013-06-15 10:40:00,
2013-06-15 06:45:00,59.6,55.7,29.87,NE,45,1.0,7.0,87,0.00,,,0.00,WeatherCatV1.14B232,2013-06-15 10:45:00,
2013-06-15 06:50:00,59.6,55.7,29.87,NE,45,1.0,7.0,87,0.00,,,0.00,WeatherCatV1.14B232,2013-06-15 10:50:00,
2013-06-15 06:55:00,59.6,55.7,29.87,NE,45,1.0,7.0,87,0.00,,,0.00,WeatherCatV1.14B232,2013-06-15 10:55:00,
2013-06-15 07:00:00,59.6,55.7,29.87,NE,45,1.0,7.0,87,0.00,,,0.00,WeatherCatV1.14B232,2013-06-15 11:00:00,
2013-06-15 07:05:00,59.6,55.7,29.87,NE,45,1.0,7.0,87,0.00,,,0.00,WeatherCatV1.14B232,2013-06-15 11:05:00,
2013-06-15 07:10:00,61.8,55.9,29.88,NE,45,2.0,8.0,81,0.00,,,0.00,WeatherCatV1.14B232,2013-06-15 11:10:00,
2013-06-15 07:15:00,61.8,55.9,29.88,NE,45,2.0,8.0,81,0.00,,,0.00,WeatherCatV1.14B232,2013-06-15 11:15:00,
2013-06-15 07:20:00,61.8,55.9,29.88,NE,45,2.0,8.0,81,0.00,,,0.00,WeatherCatV1.14B232,2013-06-15 11:20:00,
2013-06-15 07:25:00,61.8,55.9,29.88,NE,45,2.0,8.0,81,0.00,,,0.00,WeatherCatV1.14B232,2013-06-15 11:25:00,
2013-06-15 07:30:00,61.8,55.9,29.88,NE,45,2.0,8.0,81,0.00,,,0.00,WeatherCatV1.14B232,2013-06-15 11:30:00,
2013-06-15 07:35:00,61.8,55.9,29.88,NE,45,2.0,8.0,81,0.00,,,0.00,WeatherCatV1.14B232,2013-06-15 11:35:00,
2013-06-15 07:40:00,63.8,55.7,29.88,NE,45,2.0,11.0,75,0.00,,,0.00,WeatherCatV1.14B232,2013-06-15 11:40:00,
2013-06-15 07:45:00,63.8,55.7,29.88,NE,45,2.0,11.0,75,0.00,,,0.00,WeatherCatV1.14B232,2013-06-15 11:45:00,
2013-06-15 07:50:00,63.8,55.7,29.88,NE,45,2.0,11.0,75,0.00,,,0.00,WeatherCatV1.14B232,2013-06-15 11:50:00,
2013-06-15 07:55:00,63.8,55.7,29.88,NE,45,2.0,11.0,75,0.00,,,0.00,WeatherCatV1.14B232,2013-06-15 11:55:00,
2013-06-15 08:00:00,63.8,55.7,29.88,NE,45,2.0,11.0,75,0.00,,,0.00,WeatherCatV1.14B232,2013-06-15 12:00:00,
2013-06-15 08:05:00,63.8,55.7,29.88,NE,45,2.0,11.0,75,0.00,,,0.00,WeatherCatV1.14B232,2013-06-15 12:05:00,
2013-06-15 08:10:00,65.8,56.5,29.90,NE,45,1.0,7.0,72,0.00,,,0.00,WeatherCatV1.14B232,2013-06-15 12:10:00,
2013-06-15 08:15:00,65.8,56.5,29.90,NE,45,1.0,7.0,72,0.00,,,0.00,WeatherCatV1.14B232,2013-06-15 12:15:00,
2013-06-15 08:20:00,65.8,56.5,29.90,NE,45,1.0,7.0,72,0.00,,,0.00,WeatherCatV1.14B232,2013-06-15 12:20:00,
2013-06-15 08:25:00,65.8,56.5,29.90,NE,45,1.0,7.0,72,0.00,,,0.00,WeatherCatV1.14B232,2013-06-15 12:25:00,
2013-06-15 08:30:00,65.8,56.5,29.90,NE,45,1.0,7.0,72,0.00,,,0.00,WeatherCatV1.14B232,2013-06-15 12:30:00,
2013-06-15 08:35:00,65.8,56.5,29.90,NE,45,1.0,7.0,72,0.00,,,0.00,WeatherCatV1.14B232,2013-06-15 12:35:00,
2013-06-15 08:40:00,67.4,56.0,29.91,NNE,22,2.0,7.0,67,0.00,,,0.00,WeatherCatV1.14B232,2013-06-15 12:40:00,
2013-06-15 08:45:00,67.4,56.0,29.91,NNE,22,2.0,7.0,67,0.00,,,0.00,WeatherCatV1.14B232,2013-06-15 12:45:00,
2013-06-15 08:50:00,67.4,56.0,29.91,NNE,22,2.0,7.0,67,0.00,,,0.00,WeatherCatV1.14B232,2013-06-15 12:50:00,
2013-06-15 08:55:00,67.4,56.0,29.91,NNE,22,2.0,7.0,67,0.00,,,0.00,WeatherCatV1.14B232,2013-06-15 12:55:00,
2013-06-15 09:00:00,67.4,56.0,29.91,NNE,22,2.0,7.0,67,0.00,,,0.00,WeatherCatV1.14B232,2013-06-15 13:00:00,
2013-06-15 09:05:00,67.4,56.0,29.91,NNE,22,2.0,7.0,67,0.00,,,0.00,WeatherCatV1.14B232,2013-06-15 13:05:00,
2013-06-15 09:10:00,69.6,54.6,29.92,North,0,1.0,7.0,59,0.00,,,0.00,WeatherCatV1.14B232,2013-06-15 13:10:00,
2013-06-15 09:15:00,69.6,54.6,29.92,North,0,1.0,7.0,59,0.00,,,0.00,WeatherCatV1.14B232,2013-06-15 13:15:00,
2013-06-15 09:20:00,69.6,54.6,29.92,North,0,1.0,7.0,59,0.00,,,0.00,WeatherCatV1.14B232,2013-06-15 13:20:00,
2013-06-15 09:25:00,69.6,54.6,29.92,North,0,1.0,7.0,59,0.00,,,0.00,WeatherCatV1.14B232,2013-06-15 13:25:00,
2013-06-15 09:30:00,69.6,54.6,29.92,North,0,1.0,7.0,59,0.00,,,0.00,WeatherCatV1.14B232,2013-06-15 13:30:00,
2013-06-15 09:35:00,69.6,54.6,29.92,North,0,1.0,7.0,59,0.00,,,0.00,WeatherCatV1.14B232,2013-06-15 13:35:00,
2013-06-15 09:40:00,71.6,54.1,29.92,North,0,2.0,9.0,54,0.00,,,0.00,WeatherCatV1.14B232,2013-06-15 13:40:00,
2013-06-15 09:45:00,71.6,54.1,29.92,North,0,2.0,9.0,54,0.00,,,0.00,WeatherCatV1.14B232,2013-06-15 13:45:00,
2013-06-15 09:50:00,71.6,54.1,29.92,North,0,2.0,9.0,54,0.00,,,0.00,WeatherCatV1.14B232,2013-06-15 13:50:00,
2013-06-15 09:55:00,71.6,54.1,29.92,North,0,2.0,9.0,54,0.00,,,0.00,WeatherCatV1.14B232,2013-06-15 13:55:00,
2013-06-15 10:00:00,71.6,54.1,29.92,North,0,2.0,9.0,54,0.00,,,0.00,WeatherCatV1.14B232,2013-06-15 14:00:00,
2013-06-15 10:05:00,71.6,54.1,29.92,North,0,2.0,9.0,54,0.00,,,0.00,WeatherCatV1.14B232,2013-06-15 14:05:00,
2013-06-15 10:10:00,72.9,51.5,29.93,ENE,68,2.0,10.0,47,0.00,,,0.00,WeatherCatV1.14B232,2013-06-15 14:10:00,
2013-06-15 10:15:00,72.9,51.5,29.93,ENE,68,2.0,10.0,47,0.00,,,0.00,WeatherCatV1.14B232,2013-06-15 14:15:00,
2013-06-15 10:20:00,72.9,51.5,29.93,ENE,68,2.0,10.0,47,0.00,,,0.00,WeatherCatV1.14B232,2013-06-15 14:20:00,
2013-06-15 10:25:00,72.9,51.5,29.93,ENE,68,2.0,10.0,47,0.00,,,0.00,WeatherCatV1.14B232,2013-06-15 14:25:00,
2013-06-15 10:30:00,72.9,51.5,29.93,ENE,68,2.0,10.0,47,0.00,,,0.00,WeatherCatV1.14B232,2013-06-15 14:30:00,
2013-06-15 10:35:00,72.9,51.5,29.93,ENE,68,2.0,10.0,47,0.00,,,0.00,WeatherCatV1.14B232,2013-06-15 14:35:00,
2013-06-15 10:40:00,74.7,52.5,29.93,NE,45,2.0,7.0,46,0.00,,,0.00,WeatherCatV1.14B232,2013-06-15 14:40:00,
2013-06-15 10:45:00,74.7,52.5,29.93,NE,45,2.0,7.0,46,0.00,,,0.00,WeatherCatV1.14B232,2013-06-15 14:45:00,
2013-06-15 10:50:00,74.7,52.5,29.93,NE,45,2.0,7.0,46,0.00,,,0.00,WeatherCatV1.14B232,2013-06-15 14:50:00,
2013-06-15 10:55:00,74.7,52.5,29.93,NE,45,2.0,7.0,46,0.00,,,0.00,WeatherCatV1.14B232,2013-06-15 14:55:00,
2013-06-15 11:00:00,74.7,52.5,29.93,NE,45,2.0,7.0,46,0.00,,,0.00,WeatherCatV1.14B232,2013-06-15 15:00:00,
2013-06-15 11:05:00,74.7,52.5,29.93,NE,45,2.0,7.0,46,0.00,,,0.00,WeatherCatV1.14B232,2013-06-15 15:05:00,
2013-06-15 11:10:00,74.4,51.0,29.93,NE,45,2.0,10.0,44,0.00,,,0.00,WeatherCatV1.14B232,2013-06-15 15:10:00,
2013-06-15 11:15:00,74.4,51.0,29.93,NE,45,2.0,10.0,44,0.00,,,0.00,WeatherCatV1.14B232,2013-06-15 15:15:00,
2013-06-15 11:20:00,74.4,51.0,29.93,NE,45,2.0,10.0,44,0.00,,,0.00,WeatherCatV1.14B232,2013-06-15 15:20:00,
2013-06-15 11:25:00,74.4,51.0,29.93,NE,45,2.0,10.0,44,0.00,,,0.00,WeatherCatV1.14B232,2013-06-15 15:25:00,
2013-06-15 11:30:00,74.4,51.0,29.93,NE,45,2.0,10.0,44,0.00,,,0.00,WeatherCatV1.14B232,2013-06-15 15:30:00,
2013-06-15 11:35:00,74.4,51.0,29.93,NE,45,2.0,10.0,44,0.00,,,0.00,WeatherCatV1.14B232,2013-06-15 15:35:00,
2013-06-15 11:40:00,73.6,49.7,29.93,NNW,338,2.0,8.0,43,0.00,,,0.00,WeatherCatV1.14B232,2013-06-15 15:40:00,
2013-06-15 11:45:00,73.6,49.7,29.93,NNW,338,2.0,8.0,43,0.00,,,0.00,WeatherCatV1.14B232,2013-06-15 15:45:00,
2013-06-15 11:50:00,73.6,49.7,29.93,NNW,338,2.0,8.0,43,0.00,,,0.00,WeatherCatV1.14B232,2013-06-15 15:50:00,
2013-06-15 11:55:00,73.6,49.7,29.93,NNW,338,2.0,8.0,43,0.00,,,0.00,WeatherCatV1.14B232,2013-06-15 15:55:00,
2013-06-15 12:00:00,73.6,49.7,29.93,NNW,338,2.0,8.0,43,0.00,,,0.00,WeatherCatV1.14B232,2013-06-15 16:00:00,
2013-06-15 12:05:00,73.6,49.7,29.93,NNW,338,2.0,8.0,43,0.00,,,0.00,WeatherCatV1.14B232,2013-06-15 16:05:00,
2013-06-15 12:10:00,75.8,49.7,29.93,NNW,338,2.0,10.0,40,0.00,,,0.00,WeatherCatV1.14B232,2013-06-15 16:10:00,
2013-06-15 12:15:00,75.8,49.7,29.93,NNW,338,2.0,10.0,40,0.00,,,0.00,WeatherCatV1.14B232,2013-06-15 16:15:00,
2013-06-15 12:20:00,75.8,49.7,29.93,NNW,338,2.0,10.0,40,0.00,,,0.00,WeatherCatV1.14B232,2013-06-15 16:20:00,
2013-06-15 12:25:00,75.8,49.7,29.93,NNW,338,2.0,10.0,40,0.00,,,0.00,WeatherCatV1.14B232,2013-06-15 16:25:00,
2013-06-15 12:30:00,75.8,49.7,29.93,NNW,338,2.0,10.0,40,0.00,,,0.00,WeatherCatV1.14B232,2013-06-15 16:30:00,
2013-06-15 12:35:00,75.8,49.7,29.93,NNW,338,2.0,10.0,40,0.00,,,0.00,WeatherCatV1.14B232,2013-06-15 16:35:00,
2013-06-15 12:40:00,76.7,47.7,29.93,NNW,338,2.0,8.0,36,0.00,,,0.00,WeatherCatV1.14B232,2013-06-15 16:40:00,
2013-06-15 12:45:00,76.7,47.7,29.93,NNW,338,2.0,8.0,36,0.00,,,0.00,WeatherCatV1.14B232,2013-06-15 16:45:00,
2013-06-15 12:50:00,76.7,47.7,29.93,NNW,338,2.0,8.0,36,0.00,,,0.00,WeatherCatV1.14B232,2013-06-15 16:50:00,
2013-06-15 12:55:00,76.7,47.7,29.93,NNW,338,2.0,8.0,36,0.00,,,0.00,WeatherCatV1.14B232,2013-06-15 16:55:00,
2013-06-15 13:00:00,76.7,47.7,29.93,NNW,338,2.0,8.0,36,0.00,,,0.00,WeatherCatV1.14B232,2013-06-15 17:00:00,
2013-06-15 13:05:00,76.7,47.7,29.93,NNW,338,2.0,8.0,36,0.00,,,0.00,WeatherCatV1.14B232,2013-06-15 17:05:00,
2013-06-15 13:10:00,77.3,47.5,29.93,North,0,2.0,7.0,35,0.00,,,0.00,WeatherCatV1.14B232,2013-06-15 17:10:00,
2013-06-15 13:15:00,77.3,47.5,29.93,North,0,2.0,7.0,35,0.00,,,0.00,WeatherCatV1.14B232,2013-06-15 17:15:00,
2013-06-15 13:20:00,77.3,47.5,29.93,North,0,2.0,7.0,35,0.00,,,0.00,WeatherCatV1.14B232,2013-06-15 17:20:00,
2013-06-15 13:25:00,77.3,47.5,29.93,North,0,2.0,7.0,35,0.00,,,0.00,WeatherCatV1.14B232,2013-06-15 17:25:00,
2013-06-15 13:30:00,77.3,47.5,29.93,North,0,2.0,7.0,35,0.00,,,0.00,WeatherCatV1.14B232,2013-06-15 17:30:00,
2013-06-15 13:35:00,77.3,47.5,29.93,North,0,2.0,7.0,35,0.00,,,0.00,WeatherCatV1.14B232,2013-06-15 17:35:00,
2013-06-15 13:40:00,78.1,49.7,29.93,ENE,68,2.0,7.0,37,0.00,,,0.00,WeatherCatV1.14B232,2013-06-15 17:40:00,
2013-06-15 13:45:00,78.1,49.7,29.93,ENE,68,2.0,7.0,37,0.00,,,0.00,WeatherCatV1.14B232,2013-06-15 17:45:00,
2013-06-15 13:50:00,78.1,49.7,29.93,ENE,68,2.0,7.0,37,0.00,,,0.00,WeatherCatV1.14B232,2013-06-15 17:50:00,
2013-06-15 13:55:00,78.1,49.7,29.93,ENE,68,2.0,7.0,37,0.00,,,0.00,WeatherCatV1.14B232,2013-06-15 17:55:00,
2013-06-15 14:00:00,78.1,49.7,29.93,ENE,68,2.0,7.0,37,0.00,,,0.00,WeatherCatV1.14B232,2013-06-15 18:00:00,
2013-06-15 14:05:00,78.1,49.7,29.93,ENE,68,2.0,7.0,37,0.00,,,0.00,WeatherCatV1.14B232,2013-06-15 18:05:00,
2013-06-15 14:10:00,76.1,47.9,29.92,NNW,338,2.0,6.0,37,0.00,,,0.00,WeatherCatV1.14B232,2013-06-15 18:10:00,
2013-06-15 14:15:00,76.1,47.9,29.92,NNW,338,2.0,6.0,37,0.00,,,0.00,WeatherCatV1.14B232,2013-06-15 18:15:00,
2013-06-15 14:20:00,76.1,47.9,29.92,NNW,338,2.0,6.0,37,0.00,,,0.00,WeatherCatV1.14B232,2013-06-15 18:20:00,
2013-06-15 14:25:00,76.1,47.9,29.92,NNW,338,2.0,6.0,37,0.00,,,0.00,WeatherCatV1.14B232,2013-06-15 18:25:00,
2013-06-15 14:30:00,76.1,47.9,29.92,NNW,338,2.0,6.0,37,0.00,,,0.00,WeatherCatV1.14B232,2013-06-15 18:30:00,
2013-06-15 14:35:00,76.1,47.9,29.92,NNW,338,2.0,6.0,37,0.00,,,0.00,WeatherCatV1.14B232,2013-06-15 18:35:00,
2013-06-15 14:40:00,76.9,52.7,29.92,NW,315,3.0,8.0,43,0.00,,,0.00,WeatherCatV1.14B232,2013-06-15 18:40:00,
2013-06-15 14:45:00,76.9,52.7,29.92,NW,315,3.0,8.0,43,0.00,,,0.00,WeatherCatV1.14B232,2013-06-15 18:45:00,
2013-06-15 14:50:00,76.9,52.7,29.92,NW,315,3.0,8.0,43,0.00,,,0.00,WeatherCatV1.14B232,2013-06-15 18:50:00,
2013-06-15 14:55:00,76.9,52.7,29.92,NW,315,3.0,8.0,43,0.00,,,0.00,WeatherCatV1.14B232,2013-06-15 18:55:00,
2013-06-15 15:00:00,76.9,52.7,29.92,NW,315,3.0,8.0,43,0.00,,,0.00,WeatherCatV1.14B232,2013-06-15 19:00:00,
2013-06-15 15:05:00,76.9,52.7,29.92,NW,315,3.0,8.0,43,0.00,,,0.00,WeatherCatV1.14B232,2013-06-15 19:05:00,
2013-06-15 15:10:00,75.0,54.0,29.92,West,270,4.0,9.0,48,0.00,,,0.00,WeatherCatV1.14B232,2013-06-15 19:10:00,
2013-06-15 15:15:00,75.0,54.0,29.92,West,270,4.0,9.0,48,0.00,,,0.00,WeatherCatV1.14B232,2013-06-15 19:15:00,
2013-06-15 15:20:00,75.0,54.0,29.92,West,270,4.0,9.0,48,0.00,,,0.00,WeatherCatV1.14B232,2013-06-15 19:20:00,
2013-06-15 15:25:00,75.0,54.0,29.92,West,270,4.0,9.0,48,0.00,,,0.00,WeatherCatV1.14B232,2013-06-15 19:25:00,
2013-06-15 15:30:00,75.0,54.0,29.92,West,270,4.0,9.0,48,0.00,,,0.00,WeatherCatV1.14B232,2013-06-15 19:30:00,
2013-06-15 15:35:00,75.0,54.0,29.92,West,270,4.0,9.0,48,0.00,,,0.00,WeatherCatV1.14B232,2013-06-15 19:35:00,
2013-06-15 15:40:00,74.0,54.7,29.91,West,270,5.0,10.0,51,0.00,,,0.00,WeatherCatV1.14B232,2013-06-15 19:40:00,
2013-06-15 15:45:00,74.0,54.7,29.91,West,270,5.0,10.0,51,0.00,,,0.00,WeatherCatV1.14B232,2013-06-15 19:45:00,
2013-06-15 15:50:00,74.0,54.7,29.91,West,270,5.0,10.0,51,0.00,,,0.00,WeatherCatV1.14B232,2013-06-15 19:50:00,
2013-06-15 15:55:00,74.0,54.7,29.91,West,270,5.0,10.0,51,0.00,,,0.00,WeatherCatV1.14B232,2013-06-15 19:55:00,
2013-06-15 16:00:00,74.0,54.7,29.91,West,270,5.0,10.0,51,0.00,,,0.00,WeatherCatV1.14B232,2013-06-15 20:00:00,
2013-06-15 16:05:00,74.0,54.7,29.91,West,270,5.0,10.0,51,0.00,,,0.00,WeatherCatV1.14B232,2013-06-15 20:05:00,
2013-06-15 16:10:00,74.4,56.1,29.91,WSW,248,5.0,11.0,53,0.00,,,0.00,WeatherCatV1.14B232,2013-06-15 20:10:00,
2013-06-15 16:15:00,74.4,56.1,29.91,WSW,248,5.0,11.0,53,0.00,,,0.00,WeatherCatV1.14B232,2013-06-15 20:15:00,
2013-06-15 16:20:00,74.4,56.1,29.91,WSW,248,5.0,11.0,53,0.00,,,0.00,WeatherCatV1.14B232,2013-06-15 20:20:00,
2013-06-15 16:25:00,74.4,56.1,29.91,WSW,248,5.0,11.0,53,0.00,,,0.00,WeatherCatV1.14B232,2013-06-15 20:25:00,
2013-06-15 16:30:00,74.4,56.1,29.91,WSW,248,5.0,11.0,53,0.00,,,0.00,WeatherCatV1.14B232,2013-06-15 20:30:00,
2013-06-15 16:35:00,74.4,56.1,29.91,WSW,248,5.0,11.0,53,0.00,,,0.00,WeatherCatV1.14B232,2013-06-15 20:35:00,
2013-06-15 16:40:00,71.8,55.2,29.92,WSW,248,7.0,14.0,56,0.00,,,0.00,WeatherCatV1.14B232,2013-06-15 20:40:00,
2013-06-15 16:45:00,71.8,55.2,29.92,WSW,248,7.0,14.0,56,0.00,,,0.00,WeatherCatV1.14B232,2013-06-15 20:45:00,
2013-06-15 16:50:00,71.8,55.2,29.92,WSW,248,7.0,14.0,56,0.00,,,0.00,WeatherCatV1.14B232,2013-06-15 20:50:00,
2013-06-15 16:55:00,71.8,55.2,29.92,WSW,248,7.0,14.0,56,0.00,,,0.00,WeatherCatV1.14B232,2013-06-15 20:55:00,
2013-06-15 17:00:00,71.8,55.2,29.92,WSW,248,7.0,14.0,56,0.00,,,0.00,WeatherCatV1.14B232,2013-06-15 21:00:00,
2013-06-15 17:05:00,71.8,55.2,29.92,WSW,248,7.0,14.0,56,0.00,,,0.00,WeatherCatV1.14B232,2013-06-15 21:05:00,
2013-06-15 17:10:00,72.0,53.9,29.91,WSW,248,4.0,13.0,53,0.00,,,0.00,WeatherCatV1.14B232,2013-06-15 21:10:00,
2013-06-15 17:15:00,72.0,53.9,29.91,WSW,248,4.0,13.0,53,0.00,,,0.00,WeatherCatV1.14B232,2013-06-15 21:15:00,
2013-06-15 17:20:00,72.0,53.9,29.91,WSW,248,4.0,13.0,53,0.00,,,0.00,WeatherCatV1.14B232,2013-06-15 21:20:00,
2013-06-15 17:25:00,72.0,53.9,29.91,WSW,248,4.0,13.0,53,0.00,,,0.00,WeatherCatV1.14B232,2013-06-15 21:25:00,
2013-06-15 17:30:00,72.0,53.9,29.91,WSW,248,4.0,13.0,53,0.00,,,0.00,WeatherCatV1.14B232,2013-06-15 21:30:00,
2013-06-15 17:35:00,72.0,53.9,29.91,WSW,248,4.0,13.0,53,0.00,,,0.00,WeatherCatV1.14B232,2013-06-15 21:35:00,
2013-06-15 17:40:00,71.0,58.6,29.91,WSW,248,3.0,12.0,65,0.00,,,0.00,WeatherCatV1.14B232,2013-06-15 21:40:00,
2013-06-15 17:45:00,71.0,58.6,29.91,WSW,248,3.0,12.0,65,0.00,,,0.00,WeatherCatV1.14B232,2013-06-15 21:45:00,
2013-06-15 17:50:00,71.0,58.6,29.91,WSW,248,3.0,12.0,65,0.00,,,0.00,WeatherCatV1.14B232,2013-06-15 21:50:00,
2013-06-15 17:55:00,71.0,58.6,29.91,WSW,248,3.0,12.0,65,0.00,,,0.00,WeatherCatV1.14B232,2013-06-15 21:55:00,
2013-06-15 18:00:00,71.0,58.6,29.91,WSW,248,3.0,12.0,65,0.00,,,0.00,WeatherCatV1.14B232,2013-06-15 22:00:00,
2013-06-15 18:05:00,71.0,58.6,29.91,WSW,248,3.0,12.0,65,0.00,,,0.00,WeatherCatV1.14B232,2013-06-15 22:05:00,
2013-06-15 18:10:00,68.6,60.0,29.90,West,270,8.0,16.0,74,0.00,,,0.00,WeatherCatV1.14B232,2013-06-15 22:10:00,
2013-06-15 18:15:00,68.6,60.0,29.90,West,270,8.0,16.0,74,0.00,,,0.00,WeatherCatV1.14B232,2013-06-15 22:15:00,
2013-06-15 18:20:00,68.6,60.0,29.90,West,270,8.0,16.0,74,0.00,,,0.00,WeatherCatV1.14B232,2013-06-15 22:20:00,
2013-06-15 18:25:00,68.6,60.0,29.90,West,270,8.0,16.0,74,0.00,,,0.00,WeatherCatV1.14B232,2013-06-15 22:25:00,
2013-06-15 18:30:00,68.6,60.0,29.90,West,270,8.0,16.0,74,0.00,,,0.00,WeatherCatV1.14B232,2013-06-15 22:30:00,
2013-06-15 18:35:00,68.6,60.0,29.90,West,270,8.0,16.0,74,0.00,,,0.00,WeatherCatV1.14B232,2013-06-15 22:35:00,
2013-06-15 18:40:00,67.6,60.5,29.91,West,270,8.0,15.0,78,0.00,,,0.00,WeatherCatV1.14B232,2013-06-15 22:40:00,
2013-06-15 18:45:00,67.6,60.5,29.91,West,270,8.0,15.0,78,0.00,,,0.00,WeatherCatV1.14B232,2013-06-15 22:45:00,
2013-06-15 18:50:00,67.6,60.5,29.91,West,270,8.0,15.0,78,0.00,,,0.00,WeatherCatV1.14B232,2013-06-15 22:50:00,
2013-06-15 18:55:00,67.6,60.5,29.91,West,270,8.0,15.0,78,0.00,,,0.00,WeatherCatV1.14B232,2013-06-15 22:55:00,
2013-06-15 19:00:00,67.6,60.5,29.91,West,270,8.0,15.0,78,0.00,,,0.00,WeatherCatV1.14B232,2013-06-15 23:00:00,
2013-06-15 19:05:00,67.6,60.5,29.91,West,270,8.0,15.0,78,0.00,,,0.00,WeatherCatV1.14B232,2013-06-15 23:05:00,
2013-06-15 19:10:00,66.7,60.7,29.91,West,270,9.0,15.0,81,0.00,,,0.00,WeatherCatV1.14B232,2013-06-15 23:10:00,
2013-06-15 19:15:00,66.7,60.7,29.91,West,270,9.0,15.0,81,0.00,,,0.00,WeatherCatV1.14B232,2013-06-15 23:15:00,
2013-06-15 19:20:00,66.7,60.7,29.91,West,270,9.0,15.0,81,0.00,,,0.00,WeatherCatV1.14B232,2013-06-15 23:20:00,
2013-06-15 19:25:00,66.7,60.7,29.91,West,270,9.0,15.0,81,0.00,,,0.00,WeatherCatV1.14B232,2013-06-15 23:25:00,
2013-06-15 19:30:00,66.7,60.7,29.91,West,270,9.0,15.0,81,0.00,,,0.00,WeatherCatV1.14B232,2013-06-15 23:30:00,
2013-06-15 19:35:00,66.7,60.7,29.91,West,270,9.0,15.0,81,0.00,,,0.00,WeatherCatV1.14B232,2013-06-15 23:35:00,
2013-06-15 19:40:00,66.0,61.0,29.92,West,270,9.0,15.0,84,0.00,,,0.00,WeatherCatV1.14B232,2013-06-15 23:40:00,
2013-06-15 19:45:00,66.0,61.0,29.92,West,270,9.0,15.0,84,0.00,,,0.00,WeatherCatV1.14B232,2013-06-15 23:45:00,
2013-06-15 19:50:00,66.0,61.0,29.92,West,270,9.0,15.0,84,0.00,,,0.00,WeatherCatV1.14B232,2013-06-15 23:50:00,
2013-06-15 19:55:00,66.0,61.0,29.92,West,270,9.0,15.0,84,0.00,,,0.00,WeatherCatV1.14B232,2013-06-15 23:55:00,
2013-06-15 20:00:00,66.0,61.0,29.92,West,270,9.0,15.0,84,0.00,,,0.00,WeatherCatV1.14B232,2013-06-16 00:00:00,
2013-06-15 20:05:00,66.0,61.0,29.92,West,270,9.0,15.0,84,0.00,,,0.00,WeatherCatV1.14B232,2013-06-16 00:05:00,
2013-06-15 20:10:00,65.7,60.4,29.92,West,270,7.0,12.0,83,0.00,,,0.00,WeatherCatV1.14B232,2013-06-16 00:10:00,
2013-06-15 20:15:00,65.7,60.4,29.92,West,270,7.0,12.0,83,0.00,,,0.00,WeatherCatV1.14B232,2013-06-16 00:15:00,
2013-06-15 20:20:00,65.7,60.4,29.92,West,270,7.0,12.0,83,0.00,,,0.00,WeatherCatV1.14B232,2013-06-16 00:20:00,
2013-06-15 20:25:00,65.7,60.4,29.92,West,270,7.0,12.0,83,0.00,,,0.00,WeatherCatV1.14B232,2013-06-16 00:25:00,
2013-06-15 20:30:00,65.7,60.4,29.92,West,270,7.0,12.0,83,0.00,,,0.00,WeatherCatV1.14B232,2013-06-16 00:30:00,
2013-06-15 20:35:00,65.7,60.4,29.92,West,270,7.0,12.0,83,0.00,,,0.00,WeatherCatV1.14B232,2013-06-16 00:35:00,
2013-06-15 20:40:00,65.4,60.4,29.92,West,270,6.0,11.0,84,0.00,,,0.00,WeatherCatV1.14B232,2013-06-16 00:40:00,
2013-06-15 20:45:00,65.4,60.4,29.92,West,270,6.0,11.0,84,0.00,,,0.00,WeatherCatV1.14B232,2013-06-16 00:45:00,
2013-06-15 20:50:00,65.4,60.4,29.92,West,270,6.0,11.0,84,0.00,,,0.00,WeatherCatV1.14B232,2013-06-16 00:50:00,
2013-06-15 20:55:00,65.4,60.4,29.92,West,270,6.0,11.0,84,0.00,,,0.00,WeatherCatV1.14B232,2013-06-16 00:55:00,
2013-06-15 21:00:00,65.4,60.4,29.92,West,270,6.0,11.0,84,0.00,,,0.00,WeatherCatV1.14B232,2013-06-16 01:00:00,
2013-06-15 21:05:00,65.4,60.4,29.92,West,270,6.0,11.0,84,0.00,,,0.00,WeatherCatV1.14B232,2013-06-16 01:05:00,
2013-06-15 21:10:00,65.6,61.3,29.94,West,270,8.0,12.0,86,0.00,,,0.00,WeatherCatV1.14B232,2013-06-16 01:10:00,
2013-06-15 21:15:00,65.6,61.3,29.94,West,270,8.0,12.0,86,0.00,,,0.00,WeatherCatV1.14B232,2013-06-16 01:15:00,
2013-06-15 21:20:00,65.6,61.3,29.94,West,270,8.0,12.0,86,0.00,,,0.00,WeatherCatV1.14B232,2013-06-16 01:20:00,
2013-06-15 21:25:00,65.6,61.3,29.94,West,270,8.0,12.0,86,0.00,,,0.00,WeatherCatV1.14B232,2013-06-16 01:25:00,
2013-06-15 21:30:00,65.6,61.3,29.94,West,270,8.0,12.0,86,0.00,,,0.00,WeatherCatV1.14B232,2013-06-16 01:30:00,
2013-06-15 21:35:00,65.6,61.3,29.94,West,270,8.0,12.0,86,0.00,,,0.00,WeatherCatV1.14B232,2013-06-16 01:35:00,
2013-06-15 21:40:00,64.7,60.4,29.95,WSW,248,3.0,12.0,86,0.00,,,0.00,WeatherCatV1.14B232,2013-06-16 01:40:00,
2013-06-15 21:45:00,64.7,60.4,29.95,WSW,248,3.0,12.0,86,0.00,,,0.00,WeatherCatV1.14B232,2013-06-16 01:45:00,
2013-06-15 21:50:00,64.7,60.4,29.95,WSW,248,3.0,12.0,86,0.00,,,0.00,WeatherCatV1.14B232,2013-06-16 01:50:00,
2013-06-15 21:55:00,64.7,60.4,29.95,WSW,248,3.0,12.0,86,0.00,,,0.00,WeatherCatV1.14B232,2013-06-16 01:55:00,
2013-06-15 22:00:00,64.7,60.4,29.95,WSW,248,3.0,12.0,86,0.00,,,0.00,WeatherCatV1.14B232,2013-06-16 02:00:00,
2013-06-15 22:05:00,64.7,60.4,29.95,WSW,248,3.0,12.0,86,0.00,,,0.00,WeatherCatV1.14B232,2013-06-16 02:05:00,
2013-06-15 22:10:00,64.6,60.0,29.96,WSW,248,2.0,7.0,85,0.00,,,0.00,WeatherCatV1.14B232,2013-06-16 02:10:00,
2013-06-15 22:15:00,64.6,60.0,29.96,WSW,248,2.0,7.0,85,0.00,,,0.00,WeatherCatV1.14B232,2013-06-16 02:15:00,
2013-06-15 22:20:00,64.6,60.0,29.96,WSW,248,2.0,7.0,85,0.00,,,0.00,WeatherCatV1.14B232,2013-06-16 02:20:00,
2013-06-15 22:25:00,64.6,60.0,29.96,WSW,248,2.0,7.0,85,0.00,,,0.00,WeatherCatV1.14B232,2013-06-16 02:25:00,
2013-06-15 22:30:00,64.6,60.0,29.96,WSW,248,2.0,7.0,85,0.00,,,0.00,WeatherCatV1.14B232,2013-06-16 02:30:00,
2013-06-15 22:35:00,64.6,60.0,29.96,WSW,248,2.0,7.0,85,0.00,,,0.00,WeatherCatV1.14B232,2013-06-16 02:35:00,
2013-06-15 22:40:00,64.0,59.4,29.96,WSW,248,1.0,6.0,85,0.00,,,0.00,WeatherCatV1.14B232,2013-06-16 02:40:00,
2013-06-15 22:45:00,64.0,59.4,29.96,WSW,248,1.0,6.0,85,0.00,,,0.00,WeatherCatV1.14B232,2013-06-16 02:45:00,
2013-06-15 22:50:00,64.0,59.4,29.96,WSW,248,1.0,6.0,85,0.00,,,0.00,WeatherCatV1.14B232,2013-06-16 02:50:00,
2013-06-15 22:55:00,64.0,59.4,29.96,WSW,248,1.0,6.0,85,0.00,,,0.00,WeatherCatV1.14B232,2013-06-16 02:55:00,
2013-06-15 23:00:00,64.0,59.4,29.96,WSW,248,1.0,6.0,85,0.00,,,0.00,WeatherCatV1.14B232,2013-06-16 03:00:00,
2013-06-15 23:05:00,64.0,59.4,29.96,WSW,248,1.0,6.0,85,0.00,,,0.00,WeatherCatV1.14B232,2013-06-16 03:05:00,
2013-06-15 23:10:00,64.0,59.4,29.97,WSW,248,1.0,6.0,85,0.00,,,0.00,WeatherCatV1.14B232,2013-06-16 03:10:00,
2013-06-15 23:15:00,64.0,59.4,29.97,WSW,248,1.0,6.0,85,0.00,,,0.00,WeatherCatV1.14B232,2013-06-16 03:15:00,
2013-06-15 23:20:00,64.0,59.4,29.97,WSW,248,1.0,6.0,85,0.00,,,0.00,WeatherCatV1.14B232,2013-06-16 03:20:00,
2013-06-15 23:25:00,64.0,59.4,29.97,WSW,248,1.0,6.0,85,0.00,,,0.00,WeatherCatV1.14B232,2013-06-16 03:25:00,
2013-06-15 23:30:00,64.0,59.4,29.97,WSW,248,1.0,6.0,85,0.00,,,0.00,WeatherCatV1.14B232,2013-06-16 03:30:00,
2013-06-15 23:35:00,64.0,59.4,29.97,WSW,248,1.0,6.0,85,0.00,,,0.00,WeatherCatV1.14B232,2013-06-16 03:35:00,
2013-06-15 23:40:00,64.5,59.2,29.97,West,270,3.0,8.0,83,0.00,,,0.00,WeatherCatV1.14B232,2013-06-16 03:40:00,
2013-06-15 23:45:00,64.5,59.2,29.97,West,270,3.0,8.0,83,0.00,,,0.00,WeatherCatV1.14B232,2013-06-16 03:45:00,
2013-06-15 23:50:00,64.5,59.2,29.97,West,270,3.0,8.0,83,0.00,,,0.00,WeatherCatV1.14B232,2013-06-16 03:50:00,
2013-06-15 23:55:00,64.5,59.2,29.97,West,270,3.0,8.0,83,0.00,,,0.00,WeatherCatV1.14B232,2013-06-16 03:55:00,